Regional Weather Roundup
Issued by NWS Charleston, SC

Current Version | Previous Version | Text Only | Print | Product List | Glossary Off
Versions: 1 2 3 4 5 6 7 8 9 10 11 12 13 14 15 16 17 18 19 20 21 22 23 24 25 26 27 28 29 30 31 32 33 34 35 36 37 38 39 40 41 42 43 44 45 46 47 48 49 50

000
ASUS42 KCHS 251226
RWRCHS

REGIONAL WEATHER ROUNDUP
NATIONAL WEATHER SERVICE CHARLESTON SC
800 AM EDT MON MAY 25 2015

NOTE: "FAIR" INDICATES FEW OR NO CLOUDS BELOW 12,000 FEET WITH NO
SIGNIFICANT WEATHER AND/OR OBSTRUCTIONS TO VISIBILITY.

NOT ALL STATIONS ARE QUALITY CONTROLLED BY THE NATIONAL
WEATHER SERVICE. USE DATA WITH CAUTION...ESPECIALLY
DEWPOINT OBSERVATIONS.

SCZ027-030-031-034>040-042>050-251300-
...SOUTHEAST SOUTH CAROLINA...

CITY           SKY/WX    TMP DP  RH WIND       PRES   REMARKS
N CHARLESTON   PTSUNNY   72  62  71 NE5       30.29S
6HR MIN TEMP:  61; 6HR MAX TEMP:  72;

WATERFRONT PAR   N/A     76  64  66 E12       30.26S
MOUNT PLEASANT FAIR      75  63  64 E8        30.30R
JOHNS ISLAND   PTSUNNY   75  64  69 E10       30.30R
PINOPOLIS      NOT AVBL
MONCKS CORNER  CLOUDY    72  61  68 E3        30.31S
SUMMERVILLE    CLOUDY    68  64  88 CALM      30.31S
BEAUFORT MCAS  PTSUNNY   76  66  71 E6        30.28R
6HR MIN TEMP:  74; 6HR MAX TEMP:  76;

BEAUFORT ARPT  FAIR      77  68  73 E7        30.27S
HILTON HEAD IS PTSUNNY   77  70  78 NE6       30.28R
WALTERBORO     CLOUDY    68  61  77 E6        30.30S
ALLENDALE      CLOUDY    70  63  78 CALM      30.29S

...SOUTHERN MIDLANDS AND PEE DEE...

CITY           SKY/WX    TMP DP  RH WIND       PRES   REMARKS
GEORGETOWN     NOT AVBL
KINGSTREE      NOT AVBL
ORANGEBURG     MOSUNNY   66  60  81 NE5       30.32R
6HR MIN TEMP:  61; 6HR MAX TEMP:  66;

BARNWELL       CLOUDY    68  63  83 NE3       30.31S
AIKEN          FAIR      66  55  68 E5        30.35R
MANNING        FAIR      64  59  82 CALM      30.32R
COLUMBIA       MOSUNNY   66  58  75 E7        30.32R
6HR MIN TEMP:  58; 6HR MAX TEMP:  67;

SUMTER         SUNNY     66  59  77 E1        30.32R HAZE
FLORENCE       SUNNY     65  59  81 E5        30.33R
6HR MIN TEMP:  58; 6HR MAX TEMP:  65;

MYRTLE BEACH   SUNNY     75  57  53 SE9       30.35R
N MYRTLE BEACH SUNNY     74  58  57 SE7       30.33R
6HR MIN TEMP:  71; 6HR MAX TEMP:  74;


$$

GAZ063-065-086>088-099>101-113>116-118-119-134>141-150-251300-
...SOUTHEAST GEORGIA...

CITY           SKY/WX    TMP DP  RH WIND       PRES   REMARKS
SAVANNAH ARPT  CLOUDY    75  67  76 E7        30.27R
6HR MIN TEMP:  74; 6HR MAX TEMP:  75;

HUNTER AAF     PTSUNNY   76  69  80 E9        30.24R
6HR MIN TEMP:  75; 6HR MAX TEMP:  76;

FORT STEWART   CLOUDY    73  70  88 E3        30.25R
                                      6HR PCP: TRACE;

STATESBORO     PTSUNNY   72  67  86 E6        30.28S
SYLVANIA       CLOUDY    72  66  82 E6        30.29S
CLAXTON        CLOUDY    72  68  88 E3        30.27R

...CSRA...CENTRAL AND FAR SOUTHEAST GEORGIA...

CITY           SKY/WX    TMP DP  RH WIND       PRES   REMARKS
THOMSON        CLOUDY    70  65  85 E5        30.34S
AUGUSTA-BUSH   CLOUDY    67  61  81 CALM      30.29S
6HR MIN TEMP:  59; 6HR MAX TEMP:  67;

AUGUSTA-DANIEL CLOUDY    69  60  73 E7        30.30S
SWAINSBORO     CLOUDY    73  68  83 E8        30.28R
VIDALIA        CLOUDY    73  66  78 E6        30.27R
EASTMAN        CLOUDY    73  72  97 E6        30.28S
HAZLEHURST     CLOUDY    72  69  90 E3        30.25R
ALMA           PTSUNNY   72  69  90 E5        30.25R
6HR MIN TEMP:  67; 6HR MAX TEMP:  72;

WAYCROSS       CLOUDY    74  73  97 E5        30.25R
JESUP          PTSUNNY   77  73  88 E6        30.26R
BAXLEY         FAIR      73  70  88 E6        30.25R
BRUNSWICK        N/A     77  72  83 SE5       30.26R
SAINT SIMONS   NOT AVBL

$$

SCZ027-028-034-036>038-045-046-048>050-GAZ119-141-251300-
...LAKE AND SUPPLEMENTAL COASTAL OBSERVATIONS...

STATION/POSITION TIME  TEMP    WIND        PRES    WAVE   SWELL
                       AIR SEA DIR/SP/G            HT/PER HT/PER/DIR
                 (UTC) (F)     (DEG/KT/KT) (MB)    (FT/S) (FT/S/D)
UPR LAKE MARION  NOT AVBL
WINYAH BAY       1100   72     110/  5     1025.0
LAKE MURRAY      1100   65     100/  5/  6 1026.1R
ACE BASIN NERRS  NOT AVBL
FORT PULASKI     1200   76 77   80/ 12/ 13 1025.4R
SAPELO ISLAND    1200   75      80/  4     1024.0S

$$

ANZ835-935-AMZ111-154-330-350-352-354-370-450-454-472-251300-
...C-MAN AND BUOY OBSERVATIONS...

STATION/POSITION TIME  TEMP    WIND        PRES    WAVE   SWELL
                       AIR SEA DIR/SP/G            HT/PER HT/PER/DIR
                 (UTC) (F)     (DEG/KT/KT) (MB)    (FT/S) (FT/S/D)
BUOY 41004       1150   75 75   90/ 10/ 12 1025.6R   5/ 7   3/ 7
BUOY 41008       1150   76 75  110/ 10/ 10 1024.5R   5/ 9   5/ 90/ 9
FOLLY BEACH CMAN 1200   74      90/ 13/ 14 1025.7R
CAPERS NEARSHORE 1108   74     110/ 12/ 16 1025.9R
FRIPP NEARSHORE  1100   76     100/ 12/ 16 1024.1R


STATION/POSITION TIME  TEMP    WIND        PRES    WAVE   SWELL
                       AIR SEA DIR/SP/G            HT/PER HT/PER/DIR
                 (UTC) (F)     (DEG/KT/KT) (MB)    (FT/S) (FT/S/D)
5E ST. MARYS GA  1121      77                N/A     4/ 8
FRYING PAN BUOY  1150   74 74  130/ 10/ 12 1027.7R   4/ 6   3/130/ 6
BUOY 41025       1150   73 77  150/  6/ 10 1028.4R   2/ 8   2/ 80/ 8
CAPE LOOKOUT NC  1200   72     130/  7/  8 1027.8R
BUOY 41002       1150   73 74   80/ 14/ 17 1027.1R   4/ 6   2/110/ 9
BUOY 41010       1120   78 80   80/ 12/ 12 1023.4R
ST AUGUSTINE FL  1200   77 77  120/  6/  7 1024.0R


$$



USA.gov is the U.S. government's official web portal to all federal, state and local government web resources and services.